Wind_Speed
25 24 23 22 23 22 21 20 20 22 25 26 27 28 30 29 28 29 28 27 26 23 21 22 25 25 24 23 22 22 23 22 22 21 23 23 23 22 22 22 23 25 25
26 25 25 24 24 22 21 21 24 26 30 30 30 32 31 29 29 29 28 26 25 24 23 22 24 28 30 29 26 26 27 26 26 27 27 28 29 29 29 28 28 29 30
29 29 29 26 26 24 24 23 25 30 31 30 32 32 32 30 29 29 28 26 25 24 23 21 22 25 29 32 31 29 28 29 30 30 31 33 34 34 34 33 33 34 34
30 31 30 28 26 24 26 29 29 34 33 33 34 33 32 30 30 28 28 27 27 26 23 22 21 21 26 30 32 31 31 32 33 34 33 34 35 38 39 39 40 39 39
31 29 29 27 25 27 30 33 34 36 34 35 36 37 31 31 31 29 28 28 29 29 27 25 23 20 20 25 32 35 35 36 37 39 40 42 43 42 42 41 40 40 39
33 32 31 30 30 31 34 34 35 38 36 35 36 36 33 31 31 32 32 32 30 30 30 30 28 26 23 24 27 33 37 40 42 42 42 43 44 43 42 44 44 45 45
35 34 33 33 32 33 32 33 37 38 35 35 37 36 34 33 35 36 38 37 36 35 33 34 33 34 33 31 30 31 32 36 37 38 39 37 37 39 41 42 44 46 48
36 36 35 34 35 35 33 37 38 36 36 40 39 38 37 38 41 42 42 41 40 40 40 40 39 39 39 39 38 38 38 38 39 39 40 38 38 37 37 39 42 43 43
39 39 37 37 36 36 38 37 35 36 40 40 40 41 42 43 46 46 48 48 48 46 46 46 47 47 47 46 45 44 43 44 44 44 44 43 42 43 43 44 44 44 44
39 40 41 40 41 38 36 35 37 41 43 45 46 47 47 50 51 51 52 50 51 50 51 52 53 53 53 54 54 53 52 52 50 49 49 48 47 48 49 50 49 48 49
42 42 42 40 40 37 37 40 43 45 47 48 49 50 52 53 56 54 53 55 55 55 57 58 58 59 59 60 60 59 59 59 59 58 57 55 55 55 55 54 54 55 53
43 43 44 42 37 39 42 46 47 49 51 52 54 56 57 57 55 55 56 57 58 59 60 60 62 62 63 64 64 65 65 65 65 64 65 64 63 64 63 60 59 59 59
42 42 38 39 45 45 48 50 51 53 54 57 59 60 58 56 56 56 56 55 57 58 59 61 62 63 63 66 69 70 69 68 68 68 69 70 70 72 71 68 62 62 63
41 42 45 49 50 50 52 52 54 56 60 62 60 58 57 56 56 56 57 56 55 56 58 62 64 64 65 66 68 69 71 73 73 73 75 74 74 74 74 75 75 72 72
47 49 51 52 53 54 55 56 58 60 62 61 58 58 60 57 57 60 61 61 62 63 62 62 63 66 66 67 68 69 70 69 69 70 72 73 74 76 77 77 77 77 76
53 53 54 54 52 53 57 60 62 62 62 60 59 60 60 61 65 64 64 65 66 67 68 68 69 69 69 69 68 68 69 69 68 68 69 70 71 72 73 75 76 76 77
53 54 52 52 56 58 60 61 62 61 60 60 62 62 66 67 66 67 68 70 71 72 73 72 71 71 72 71 70 70 70 69 69 70 70 71 72 74 75 75 76 77 78
52 53 53 56 57 57 60 61 60 61 61 63 66 66 65 66 69 71 71 73 75 76 76 78 76 73 73 72 72 70 70 71 72 73 74 74 73 74 74 75 76 77 77
54 54 53 53 55 56 58 59 60 61 63 64 62 65 70 74 77 76 77 78 78 78 75 75 74 73 72 68 67 69 70 72 72 71 70 68 69 69 70 71 73 74 74
52 52 52 54 55 56 57 59 62 64 65 66 70 74 77 80 82 81 81 81 81 76 70 66 65 63 61 62 61 61 61 62 63 63 64 65 66 68 70 70 71 71 72
51 52 52 55 56 57 58 61 63 67 70 71 75 80 85 85 80 76 73 71 67 62 58 54 51 51 54 57 58 58 60 61 62 61 60 59 58 59 60 61 61 63 64
51 52 54 54 57 60 62 65 67 70 72 75 80 85 87 76 67 63 60 56 53 51 51 51 51 50 50 49 49 47 47 49 50 51 51 52 52 54 55 54 53 53 53
55 54 54 56 58 60 65 68 70 73 74 78 81 76 70 65 60 56 54 50 46 43 42 40 41 42 42 43 45 46 46 45 45 43 44 46 45 46 49 52 54 53 51
55 54 55 57 59 62 66 68 72 76 84 79 69 65 60 55 49 44 39 37 37 36 36 36 37 38 40 40 38 38 41 44 44 44 40 43 45 45 45 44 46 49 51
57 56 58 59 64 67 68 72 75 81 81 75 65 62 53 43 38 36 31 30 31 30 33 34 35 36 39 40 42 44 45 48 49 53 55 48 46 48 49 47 44 44 46
59 60 62 65 69 71 74 76 79 78 75 64 59 53 44 38 33 31 33 34 34 36 39 40 41 43 45 48 50 50 51 51 51 55 57 58 55 51 56 53 53 51 49
Wind_Direction
265 264 259 267 278 281 282 288 302 313 317 321 321 316 323 317 314 315 316 314 310 302 288 273 259 249 250 252 253 255 257 256 256 254 254 251 253 256 261 267 272 276 280
264 265 261 264 274 279 283 283 301 311 314 313 318 320 319 318 315 315 315 310 308 305 299 284 271 254 247 244 248 258 255 256 256 259 261 262 262 261 265 269 271 276 280
262 263 265 267 270 278 280 279 302 308 312 308 315 317 315 314 315 315 314 308 308 306 302 295 281 266 259 254 254 255 255 258 260 259 261 262 264 263 263 267 269 272 275
265 264 263 266 267 274 277 282 293 305 308 310 312 315 312 309 310 311 312 309 305 303 303 301 290 273 267 264 259 260 260 262 265 264 265 265 266 266 266 265 266 269 273
262 261 262 264 265 272 277 281 287 301 306 307 310 315 308 306 308 310 314 310 308 302 298 296 293 288 275 267 266 265 267 268 270 270 270 269 270 268 268 266 268 270 272
259 260 261 265 267 273 277 276 287 296 300 304 311 310 306 306 306 311 311 311 306 302 298 293 290 285 278 273 268 265 268 269 270 270 271 272 271 269 266 262 265 269 270
258 260 264 263 264 274 275 278 286 293 298 303 306 303 303 304 306 308 307 305 304 302 298 295 293 287 282 277 273 271 269 269 270 271 272 272 272 272 268 265 264 266 269
257 255 261 263 266 267 277 282 283 291 296 300 301 300 299 300 304 304 303 301 299 297 297 296 294 291 287 282 279 277 274 272 271 272 273 271 270 271 271 269 268 267 267
255 263 262 263 263 273 276 279 284 289 293 295 296 297 295 298 299 302 302 300 298 295 295 292 291 290 288 284 282 278 274 271 270 270 271 270 268 267 267 268 268 268 268
258 261 262 260 263 272 275 282 287 289 292 294 298 299 296 295 296 294 294 292 290 290 289 288 287 285 283 282 281 279 278 278 275 272 270 269 269 267 266 267 267 268 269
253 256 256 259 267 271 279 285 286 287 293 296 297 299 296 295 295 295 293 292 291 287 286 284 282 281 280 279 279 277 277 277 277 277 276 275 274 271 268 267 268 269 268
252 253 257 262 267 275 284 287 288 291 293 295 294 294 294 296 295 293 292 291 290 288 286 285 284 282 279 278 278 277 276 275 275 275 275 275 276 275 274 273 272 269 268
252 256 262 265 276 282 287 288 289 290 291 291 293 295 291 292 292 292 293 294 293 293 292 290 286 282 281 280 279 280 280 278 277 276 275 274 273 273 273 273 272 272 271
254 262 268 276 280 286 286 287 288 289 290 293 293 290 290 291 292 294 293 291 291 290 291 292 290 288 286 285 283 282 280 279 279 277 277 277 276 275 274 274 274 274 272
263 267 271 278 283 286 288 289 288 288 290 291 291 291 292 292 294 292 289 288 288 288 289 292 291 290 288 287 286 285 284 282 281 280 280 279 278 276 275 274 274 273 272
266 270 275 280 283 284 286 287 288 289 289 290 291 292 293 293 292 291 288 287 291 288 287 288 289 289 288 287 286 284 284 283 283 282 280 280 279 278 276 274 272 271 270
269 274 279 282 284 286 286 286 287 289 290 291 294 294 293 292 293 293 291 289 292 288 287 288 289 290 289 287 286 284 284 284 283 282 280 278 277 275 272 271 270 269 267
271 276 278 281 284 285 285 287 288 290 291 293 294 295 297 296 296 294 292 290 288 288 289 288 288 288 286 285 283 286 285 283 281 282 282 281 278 276 274 272 271 270 269
273 276 279 282 283 284 286 288 289 291 293 295 297 299 299 298 297 294 292 291 290 290 289 286 284 285 284 283 283 283 283 283 282 282 283 282 281 280 278 275 274 272 270
274 277 279 280 282 286 289 289 291 292 295 298 299 300 300 299 298 297 294 292 290 290 290 288 287 286 285 284 284 284 284 284 284 284 285 284 283 282 281 280 278 276 273
275 277 280 283 285 286 287 290 294 295 295 298 302 303 300 302 299 295 294 292 292 291 291 291 291 289 289 290 290 289 288 286 287 288 289 288 287 285 283 282 281 279 277
277 280 282 285 284 285 290 293 295 296 299 303 303 302 300 299 295 294 296 295 293 293 293 293 294 294 293 295 296 294 293 293 292 293 293 293 291 289 287 286 283 280 278
278 281 281 285 288 290 291 292 295 297 301 303 304 300 297 296 294 296 294 295 296 297 298 299 300 302 302 301 301 302 302 298 298 297 295 294 292 292 291 291 290 286 281
280 282 283 287 290 290 291 296 300 302 302 307 302 298 297 296 296 298 301 302 303 305 307 309 309 307 306 305 305 305 306 306 304 298 294 298 298 296 292 290 286 284 286
281 284 286 290 291 292 297 301 301 302 305 305 301 297 295 294 295 298 303 310 312 312 315 314 312 309 308 308 308 307 307 308 307 307 306 301 303 305 301 297 293 289 283
282 286 289 292 292 297 298 301 301 302 303 299 296 294 293 297 300 306 309 311 313 313 314 313 311 310 310 310 309 308 305 304 304 306 307 309 309 313 311 304 303 301 293
Height
10894 10894 10895 10895 10896 10896 10895 10896 10896 10895 10894 10892 10891 10890 10888 10885 10883 10881 10878 10876 10874 10872 10871 10871 10870 10870 10870 10870 10870 10870 10870 10870 10870 10870 10870 10870 10870 10870 10871 10871 10870 10870 10869
10889 10890 10891 10891 10892 10892 10893 10892 10892 10891 10890 10889 10887 10886 10884 10882 10880 10878 10876 10873 10871 10869 10867 10866 10865 10865 10865 10865 10866 10866 10866 10866 10866 10866 10866 10865 10866 10866 10866 10865 10865 10864 10864
10885 10886 10887 10887 10887 10888 10889 10888 10887 10887 10886 10884 10883 10881 10880 10878 10876 10875 10873 10871 10869 10867 10864 10862 10861 10860 10860 10861 10862 10862 10861 10861 10861 10861 10860 10860 10860 10860 10860 10860 10860 10859 10859
10880 10881 10882 10883 10884 10884 10884 10883 10882 10882 10881 10879 10877 10876 10875 10874 10873 10871 10869 10868 10866 10864 10862 10860 10858 10856 10856 10856 10856 10856 10856 10856 10855 10855 10854 10854 10854 10854 10853 10853 10853 10853 10853
10875 10876 10878 10878 10879 10880 10880 10879 10878 10877 10875 10874 10873 10872 10871 10869 10868 10867 10865 10864 10862 10860 10858 10857 10855 10853 10852 10851 10851 10850 10850 10849 10848 10848 10847 10846 10846 10846 10846 10846 10846 10846 10845
10870 10871 10873 10874 10875 10875 10875 10874 10873 10872 10870 10869 10868 10867 10866 10865 10864 10863 10861 10859 10858 10856 10855 10853 10851 10849 10848 10846 10845 10844 10844 10842 10841 10840 10840 10839 10837 10837 10837 10837 10837 10838 10838
10864 10866 10868 10868 10869 10869 10869 10868 10867 10866 10865 10864 10863 10862 10861 10860 10858 10856 10855 10853 10852 10850 10849 10847 10846 10844 10842 10841 10839 10838 10838 10835 10834 10833 10832 10832 10830 10829 10829 10829 10829 10829 10829
10858 10859 10861 10863 10863 10863 10863 10862 10861 10860 10859 10857 10857 10856 10855 10853 10852 10850 10848 10846 10844 10842 10841 10839 10838 10837 10835 10834 10833 10831 10830 10828 10826 10824 10823 10824 10823 10821 10820 10820 10819 10820 10820
10852 10854 10855 10856 10856 10856 10856 10855 10854 10853 10852 10851 10851 10850 10848 10846 10845 10843 10841 10839 10837 10835 10832 10830 10829 10827 10825 10824 10823 10822 10821 10819 10818 10816 10814 10815 10815 10814 10812 10811 10810 10810 10809
10846 10848 10849 10850 10849 10849 10849 10848 10847 10846 10845 10843 10843 10842 10840 10838 10836 10833 10831 10829 10827 10825 10823 10820 10818 10816 10814 10812 10810 10810 10809 10808 10808 10807 10806 10805 10805 10804 10803 10801 10801 10801 10800
10839 10841 10843 10843 10842 10843 10842 10842 10841 10839 10838 10837 10835 10833 10830 10828 10825 10823 10820 10818 10816 10813 10811 10808 10806 10804 10801 10799 10798 10797 10796 10795 10795 10794 10794 10794 10794 10791 10791 10792 10792 10791 10790
10834 10835 10836 10837 10837 10837 10836 10835 10833 10831 10830 10828 10826 10823 10820 10817 10815 10812 10809 10806 10803 10801 10798 10795 10793 10791 10789 10786 10784 10783 10783 10783 10781 10781 10780 10781 10781 10777 10777 10779 10780 10780 10779
10828 10829 10830 10830 10831 10830 10830 10829 10827 10823 10821 10818 10816 10813 10810 10807 10804 10801 10798 10795 10791 10788 10784 10781 10779 10777 10775 10773 10770 10768 10767 10767 10767 10767 10765 10765 10765 10763 10762 10763 10764 10766 10765
10821 10822 10823 10823 10824 10823 10822 10820 10817 10814 10811 10809 10806 10802 10800 10797 10794 10790 10787 10784 10779 10776 10773 10768 10764 10762 10760 10758 10757 10754 10753 10751 10750 10749 10747 10748 10748 10748 10746 10745 10745 10747 10749
10814 10815 10816 10817 10817 10815 10813 10809 10807 10805 10802 10799 10795 10792 10789 10785 10783 10780 10776 10772 10767 10763 10759 10755 10751 10747 10745 10742 10740 10737 10735 10734 10733 10732 10730 10729 10729 10728 10728 10727 10727 10727 10728
10806 10807 10808 10809 10808 10806 10803 10800 10797 10794 10792 10788 10785 10782 10778 10775 10772 10767 10762 10758 10753 10748 10744 10740 10736 10732 10728 10725 10722 10721 10718 10717 10716 10715 10713 10711 10710 10709 10707 10706 10706 10706 10706
10798 10799 10800 10800 10797 10796 10792 10790 10787 10784 10781 10778 10775 10771 10767 10762 10757 10752 10747 10742 10737 10732 10728 10725 10720 10716 10711 10708 10705 10702 10701 10700 10698 10696 10694 10693 10690 10688 10685 10685 10684 10683 10683
10791 10792 10793 10791 10788 10785 10782 10780 10777 10774 10771 10767 10763 10759 10753 10747 10742 10737 10731 10726 10720 10716 10713 10709 10705 10700 10694 10690 10686 10685 10683 10679 10676 10675 10673 10672 10670 10667 10665 10663 10663 10661 10661
10784 10784 10784 10781 10778 10775 10774 10771 10767 10764 10760 10756 10750 10745 10739 10732 10725 10719 10713 10707 10703 10698 10694 10689 10685 10680 10675 10674 10670 10668 10665 10661 10658 10657 10655 10653 10650 10648 10646 10644 10643 10642 10641
10775 10775 10773 10770 10768 10766 10763 10759 10756 10752 10748 10743 10736 10729 10722 10714 10708 10702 10696 10690 10683 10678 10674 10671 10668 10665 10659 10656 10655 10652 10648 10644 10642 10640 10639 10636 10634 10630 10628 10625 10623 10622 10622
10766 10766 10763 10760 10758 10754 10751 10748 10745 10740 10734 10728 10722 10713 10704 10698 10690 10684 10677 10670 10665 10661 10658 10656 10653 10650 10646 10642 10640 10640 10635 10631 10627 10625 10622 10618 10616 10612 10609 10606 10604 10601 10599
10756 10756 10753 10750 10746 10743 10740 10737 10731 10725 10719 10715 10707 10697 10688 10681 10673 10667 10663 10658 10654 10649 10645 10642 10639 10637 10634 10630 10626 10624 10624 10619 10616 10614 10610 10606 10603 10598 10593 10591 10588 10585 10582
10746 10745 10743 10740 10737 10734 10729 10724 10719 10712 10707 10702 10692 10681 10673 10667 10661 10657 10652 10647 10642 10638 10635 10631 10628 10625 10623 10619 10615 10611 10608 10607 10605 10603 10598 10595 10592 10588 10583 10579 10576 10572 10569
10735 10733 10732 10730 10727 10722 10717 10713 10707 10699 10689 10686 10676 10667 10661 10655 10650 10645 10640 10636 10632 10629 10626 10622 10619 10616 10613 10610 10607 10603 10599 10594 10591 10588 10590 10584 10578 10574 10571 10567 10563 10560 10558
10724 10723 10721 10719 10714 10709 10705 10699 10694 10686 10676 10670 10663 10657 10650 10644 10639 10635 10631 10627 10623 10620 10617 10615 10611 10608 10605 10602 10598 10594 10591 10586 10580 10574 10569 10573 10570 10564 10558 10554 10550 10547 10544
10714 10712 10710 10705 10700 10695 10692 10687 10679 10671 10665 10659 10653 10648 10641 10636 10632 10628 10624 10620 10616 10613 10609 10606 10603 10599 10595 10591 10587 10584 10580 10577 10572 10566 10560 10555 10553 10553 10547 10543 10538 10535 10531